�������l�o���
Date,Time,MP-1(��Sv/h),MP-2(��Sv/h),MP-3(��Sv/h),MP-4(��Sv/h),MP-5(��Sv/h),MP-6(��Sv/h),MP-7(��Sv/h),MP-8(��Sv/h),����,����(m/s),���J
2017/08/25,00:00,0.948,1.479,0.981,1.767,1.215,0.519,0.943,0.870,�쐼,5.3,��
2017/08/25,00:10,0.947,1.481,0.979,1.768,1.215,0.519,0.944,0.868,�쐼,3.8,��
2017/08/25,00:20,0.946,1.477,0.981,1.765,1.216,0.521,0.944,0.872,�쐼,4.1,��
2017/08/25,00:30,0.947,1.480,0.980,1.768,1.216,0.518,0.944,0.872,��쐼,4.3,��
2017/08/25,00:40,0.949,1.479,0.983,1.767,1.214,0.520,0.945,0.869,��쐼,4.2,��
2017/08/25,00:50,0.947,1.479,0.982,1.769,1.215,0.519,0.945,0.870,��쐼,3.9,��
2017/08/25,01:00,0.947,1.482,0.981,1.767,1.216,0.519,0.944,0.870,��,3.7,��
2017/08/25,01:10,0.946,1.481,0.981,1.766,1.217,0.520,0.943,0.871,��쐼,3.8,��
2017/08/25,01:20,0.944,1.479,0.980,1.766,1.217,0.520,0.943,0.872,���쐼,6.3,��
2017/08/25,01:30,0.948,1.480,0.981,1.765,1.219,0.519,0.944,0.872,�쐼,7.5,��
2017/08/25,01:40,0.948,1.479,0.983,1.772,1.216,0.520,0.945,0.871,���쐼,10.3,��
2017/08/25,01:50,0.947,1.479,0.982,1.769,1.217,0.521,0.945,0.869,���쐼,7.6,��
2017/08/25,02:00,0.948,1.480,0.982,1.767,1.218,0.520,0.946,0.871,���쐼,7.3,��
2017/08/25,02:10,0.948,1.480,0.983,1.769,1.217,0.519,0.943,0.873,���쐼,6.0,��
2017/08/25,02:20,0.948,1.480,0.982,1.766,1.217,0.522,0.945,0.870,�쐼,6.2,��
2017/08/25,02:30,0.947,1.480,0.980,1.769,1.218,0.520,0.945,0.872,�쐼,7.0,��
2017/08/25,02:40,0.948,1.479,0.983,1.769,1.219,0.521,0.943,0.873,�쐼,6.4,��
2017/08/25,02:50,0.949,1.482,0.982,1.765,1.214,0.520,0.945,0.872,�쐼,7.1,��
2017/08/25,03:00,0.947,1.477,0.982,1.767,1.217,0.521,0.944,0.868,�쐼,6.7,��
2017/08/25,03:10,0.948,1.478,0.984,1.768,1.217,0.519,0.943,0.870,�쐼,7.9,��
2017/08/25,03:20,0.947,1.482,0.983,1.768,1.218,0.521,0.943,0.871,�쐼,8.4,��
2017/08/25,03:30,0.949,1.481,0.986,1.769,1.216,0.520,0.946,0.872,�쐼,8.0,��
2017/08/25,03:40,0.946,1.480,0.985,1.768,1.220,0.521,0.945,0.871,�쐼,7.5,��
2017/08/25,03:50,0.948,1.479,0.983,1.767,1.217,0.520,0.946,0.871,�쐼,7.8,��
2017/08/25,04:00,0.949,1.480,0.982,1.768,1.217,0.521,0.944,0.872,�쐼,7.9,��
2017/08/25,04:10,0.948,1.482,0.982,1.770,1.219,0.520,0.945,0.870,�쐼,6.3,��
2017/08/25,04:20,0.948,1.480,0.984,1.771,1.219,0.521,0.946,0.871,�쐼,6.1,��
2017/08/25,04:30,0.949,1.481,0.984,1.771,1.216,0.522,0.945,0.872,���쐼,5.7,��
2017/08/25,04:40,0.948,1.482,0.983,1.770,1.218,0.520,0.946,0.872,���쐼,6.2,��
2017/08/25,04:50,0.948,1.482,0.981,1.771,1.217,0.522,0.945,0.874,���쐼,6.8,��
2017/08/25,05:00,0.948,1.481,0.983,1.769,1.217,0.519,0.944,0.870,���쐼,7.3,��
2017/08/25,05:10,0.949,1.482,0.984,1.769,1.217,0.520,0.944,0.871,���쐼,7.0,��
2017/08/25,05:20,0.949,1.480,0.985,1.769,1.217,0.522,0.943,0.871,���쐼,6.3,��
2017/08/25,05:30,0.951,1.481,0.983,1.769,1.218,0.521,0.943,0.873,��,7.6,��
2017/08/25,05:40,0.950,1.484,0.983,1.772,1.219,0.521,0.946,0.872,��,8.2,��
2017/08/25,05:50,0.949,1.480,0.985,1.771,1.219,0.522,0.946,0.870,���쐼,7.4,��
2017/08/25,06:00,0.948,1.483,0.984,1.770,1.217,0.520,0.946,0.870,���쐼,4.5,��
2017/08/25,06:10,0.947,1.481,0.984,1.768,1.216,0.522,0.945,0.869,�쐼,1.7,��
2017/08/25,06:20,0.948,1.484,0.984,1.765,1.214,0.520,0.944,0.871,���쐼,2.2,�L
2017/08/25,06:30,0.948,1.483,0.982,1.769,1.218,0.521,0.943,0.874,��,5.4,�L
2017/08/25,06:40,0.949,1.481,0.983,1.771,1.218,0.521,0.946,0.870,�쐼,6.5,�L
2017/08/25,06:50,0.947,1.482,0.980,1.771,1.216,0.522,0.945,0.870,��,4.8,��
2017/08/25,07:00,0.951,1.484,0.981,1.772,1.217,0.521,0.945,0.871,���쐼,4.4,��
2017/08/25,07:10,0.950,1.480,0.979,1.771,1.221,0.521,0.945,0.872,���쐼,4.8,��
2017/08/25,07:20,0.951,1.485,0.979,1.774,1.216,0.522,0.947,0.871,���쐼,5.3,��
2017/08/25,07:30,0.949,1.483,0.980,1.773,1.215,0.522,0.945,0.872,��,5.5,��
2017/08/25,07:40,0.948,1.483,0.979,1.773,1.220,0.519,0.946,0.872,��,4.7,��
2017/08/25,07:50,0.948,1.483,0.980,1.773,1.218,0.522,0.946,0.871,���k��,4.4,��
2017/08/25,08:00,0.949,1.481,0.979,1.770,1.218,0.517,0.945,0.871,���k��,2.6,��
2017/08/25,08:10,0.947,1.484,0.982,1.772,1.218,0.518,0.945,0.871,��쓌,3.5,��
2017/08/25,08:20,0.947,1.480,0.981,1.772,1.218,0.520,0.944,0.871,��,1.7,��
2017/08/25,08:30,0.951,1.479,0.982,1.769,1.219,0.521,0.945,0.871,��,1.2,��
2017/08/25,08:40,0.947,1.483,0.980,1.773,1.219,0.521,0.945,0.871,�쐼,1.4,��
2017/08/25,08:50,0.947,1.482,0.983,1.773,1.220,0.523,0.944,0.872,��,0.6,�L
2017/08/25,09:00,0.948,1.484,0.984,1.773,1.220,0.520,0.944,0.872,�쓌,0.6,�L
2017/08/25,09:10,0.947,1.483,0.984,1.771,1.220,0.521,0.944,0.872,��쓌,2.8,�L
2017/08/25,09:20,0.946,1.478,0.987,1.771,1.220,0.523,0.945,0.872,�k�k��,2.3,�L
2017/08/25,09:30,0.941,1.470,0.982,1.769,1.217,0.524,0.944,0.871,�k,5.2,�L
2017/08/25,09:40,0.939,1.465,0.980,1.765,1.211,0.523,0.943,0.872,�k�k��,4.4,�L
2017/08/25,09:50,0.938,1.463,0.980,1.763,1.214,0.521,0.944,0.869,�k��,1.1,�L
2017/08/25,10:00,0.939,1.465,0.979,1.769,1.213,0.521,0.942,0.870,���쐼,4.4,��
2017/08/25,10:10,0.937,1.461,0.979,1.762,1.212,0.521,0.943,0.870,��,2.6,�L
2017/08/25,10:20,0.936,1.460,0.978,1.764,1.214,0.521,0.941,0.869,��쐼,2.5,�L
2017/08/25,10:30,0.936,1.461,0.977,1.761,1.212,0.522,0.942,0.868,��쐼,3.5,�L
2017/08/25,10:40,0.936,1.463,0.979,1.761,1.212,0.521,0.940,0.869,��,4.1,�L
2017/08/25,10:50,0.937,1.463,0.978,1.761,1.214,0.519,0.940,0.869,��쐼,4.3,�L
2017/08/25,11:00,0.937,1.463,0.977,1.762,1.214,0.519,0.941,0.869,��쐼,4.1,�L
2017/08/25,11:10,0.937,1.465,0.978,1.764,1.212,0.520,0.943,0.868,�쐼,2.0,�L
2017/08/25,11:20,0.935,1.461,0.980,1.764,1.212,0.517,0.942,0.869,��,2.0,�L
2017/08/25,11:30,0.939,1.463,0.976,1.764,1.211,0.518,0.942,0.868,��,2.2,��
2017/08/25,11:40,0.936,1.466,0.977,1.764,1.211,0.518,0.943,0.870,���쐼,2.0,��
2017/08/25,11:50,0.937,1.463,0.978,1.763,1.213,0.519,0.943,0.870,��,1.7,��
2017/08/25,12:00,0.938,1.466,0.978,1.766,1.213,0.521,0.945,0.868,���쐼,1.4,��
2017/08/25,12:10,0.938,1.467,0.976,1.761,1.212,0.520,0.944,0.868,��쐼,2.3,��
2017/08/25,12:20,0.939,1.469,0.978,1.761,1.214,0.522,0.942,0.869,���쐼,1.9,��
2017/08/25,12:30,0.938,1.469,0.982,1.758,1.213,0.522,0.941,0.869,�쐼,2.0,��
2017/08/25,12:40,0.939,1.470,0.980,1.764,1.211,0.523,0.943,0.869,�쐼,2.3,��
2017/08/25,12:50,0.939,1.469,0.978,1.765,1.213,0.521,0.941,0.867,���쐼,1.7,��
2017/08/25,13:00,0.942,1.469,0.979,1.766,1.213,0.520,0.943,0.868,��,2.3,��
2017/08/25,13:10,0.941,1.470,0.977,1.764,1.214,0.523,0.943,0.868,���k��,1.7,��
2017/08/25,13:20,0.942,1.469,0.978,1.766,1.214,0.522,0.944,0.869,���k��,2.6,��
2017/08/25,13:30,0.942,1.470,0.979,1.765,1.212,0.520,0.943,0.868,��,4.4,��
2017/08/25,13:40,0.941,1.470,0.980,1.764,1.214,0.521,0.945,0.869,��,3.9,��
2017/08/25,13:50,0.941,1.468,0.981,1.765,1.212,0.520,0.942,0.868,��,4.1,��
2017/08/25,14:00,0.942,1.468,0.981,1.765,1.215,0.521,0.943,0.869,���k��,3.8,��
2017/08/25,14:10,0.942,1.468,0.981,1.767,1.215,0.520,0.944,0.869,���k��,4.4,��
2017/08/25,14:20,0.944,1.471,0.982,1.765,1.217,0.522,0.945,0.869,��,4.6,��
2017/08/25,14:30,0.944,1.469,0.981,1.771,1.217,0.520,0.945,0.869,���k��,4.5,��
2017/08/25,14:40,0.943,1.469,0.982,1.770,1.218,0.521,0.945,0.868,���k��,4.5,��
2017/08/25,14:50,0.939,1.470,0.979,1.769,1.216,0.520,0.942,0.867,���k��,3.5,��
2017/08/25,15:00,0.943,1.470,0.982,1.768,1.216,0.522,0.945,0.868,���k��,3.9,��
2017/08/25,15:10,0.943,1.471,0.982,1.769,1.217,0.521,0.946,0.867,�k��,4.2,��
2017/08/25,15:20,0.946,1.476,0.981,1.770,1.218,0.523,0.945,0.868,�k��,2.5,��
2017/08/25,15:30,0.944,1.476,0.981,1.771,1.221,0.523,0.946,0.868,�k��,1.9,��
2017/08/25,15:40,0.944,1.474,0.987,1.770,1.218,0.522,0.947,0.868,���k��,0.8,��
2017/08/25,15:50,0.946,1.477,0.984,1.772,1.219,0.521,0.944,0.868,���k��,1.4,��
2017/08/25,16:00,0.943,1.474,0.985,1.770,1.218,0.520,0.943,0.868,���k��,1.1,��
2017/08/25,16:10,0.945,1.475,0.985,1.768,1.220,0.521,0.945,0.869,��,1.7,��
2017/08/25,16:20,0.944,1.479,0.981,1.771,1.218,0.520,0.945,0.868,��,1.2,��
2017/08/25,16:30,0.943,1.475,0.986,1.770,1.218,0.521,0.945,0.869,��,1.5,��
2017/08/25,16:40,0.943,1.476,0.982,1.767,1.219,0.520,0.946,0.870,���쐼,2.8,��
2017/08/25,16:50,0.946,1.475,0.985,1.771,1.219,0.521,0.945,0.873,��,2.3,��
2017/08/25,17:00,0.943,1.477,0.982,1.770,1.217,0.521,0.946,0.871,��,3.2,��
2017/08/25,17:10,0.944,1.476,0.983,1.771,1.217,0.520,0.945,0.870,��,4.1,��
2017/08/25,17:20,0.945,1.476,0.982,1.769,1.218,0.519,0.946,0.870,��,4.1,��
2017/08/25,17:30,0.943,1.477,0.985,1.770,1.215,0.518,0.945,0.868,���k��,2.6,��
2017/08/25,17:40,0.943,1.476,0.984,1.771,1.216,0.519,0.945,0.871,��,4.2,��
2017/08/25,17:50,0.941,1.478,0.983,1.770,1.216,0.520,0.943,0.871,���k��,6.6,��
2017/08/25,18:00,0.942,1.478,0.982,1.773,1.216,0.521,0.945,0.870,���k��,7.5,��
2017/08/25,18:10,0.941,1.478,0.983,1.772,1.215,0.519,0.944,0.871,���k��,11.6,��
2017/08/25,18:20,0.944,1.478,0.984,1.772,1.216,0.520,0.944,0.872,���k��,11.3,��
2017/08/25,18:30,0.945,1.475,0.982,1.772,1.216,0.519,0.946,0.872,���k��,11.3,��
2017/08/25,18:40,0.943,1.476,0.985,1.775,1.218,0.519,0.945,0.871,�k��,9.7,��
2017/08/25,18:50,0.945,1.478,0.984,1.773,1.219,0.519,0.946,0.873,�k��,6.8,��
2017/08/25,19:00,0.944,1.477,0.984,1.773,1.216,0.519,0.944,0.871,�k��,4.4,��
2017/08/25,19:10,0.944,1.478,0.984,1.774,1.217,0.521,0.945,0.871,�k�k��,3.1,��
2017/08/25,19:20,0.944,1.479,0.986,1.775,1.219,0.519,0.946,0.871,�k�k��,2.0,��
2017/08/25,19:30,0.942,1.481,0.984,1.774,1.221,0.518,0.946,0.870,��쓌,1.9,��
2017/08/25,19:40,0.945,1.480,0.982,1.775,1.219,0.520,0.944,0.870,�쓌,2.8,��
2017/08/25,19:50,0.944,1.480,0.984,1.773,1.221,0.521,0.944,0.872,�쓌,2.5,��
2017/08/25,20:00,0.945,1.477,0.983,1.773,1.219,0.520,0.944,0.872,��쓌,0.9,��
2017/08/25,20:10,0.943,1.480,0.983,1.774,1.219,0.519,0.947,0.872,���쓌,0.9,��
2017/08/25,20:20,0.943,1.480,0.984,1.774,1.219,0.520,0.946,0.873,���k��,1.4,��
2017/08/25,20:30,0.942,1.480,0.983,1.772,1.215,0.520,0.945,0.870,���k��,1.7,��
2017/08/25,20:40,0.944,1.480,0.984,1.773,1.219,0.520,0.945,0.871,���k��,2.5,��
2017/08/25,20:50,0.941,1.478,0.982,1.774,1.219,0.520,0.946,0.870,���k��,1.7,��
2017/08/25,21:00,0.944,1.479,0.985,1.774,1.219,0.520,0.946,0.870,�k��,2.0,��
2017/08/25,21:10,0.941,1.480,0.982,1.774,1.217,0.521,0.943,0.872,�k�k��,2.2,��
2017/08/25,21:20,0.942,1.479,0.982,1.772,1.218,0.518,0.945,0.872,�k�k��,2.5,��
2017/08/25,21:30,0.941,1.481,0.983,1.773,1.218,0.520,0.944,0.871,�k�k��,2.2,��
2017/08/25,21:40,0.943,1.484,0.983,1.775,1.219,0.520,0.944,0.870,�k�k��,1.7,��
2017/08/25,21:50,0.943,1.480,0.983,1.774,1.214,0.519,0.943,0.872,�k�k��,1.5,��
2017/08/25,22:00,0.943,1.481,0.983,1.772,1.219,0.518,0.945,0.872,�k��,1.4,��
2017/08/25,22:10,0.940,1.479,0.981,1.770,1.219,0.519,0.944,0.872,-,CALM,��
2017/08/25,22:20,0.943,1.478,0.984,1.774,1.218,0.520,0.944,0.870,�k��,0.6,��
2017/08/25,22:30,0.941,1.479,0.982,1.773,1.219,0.519,0.942,0.872,��,0.8,��
2017/08/25,22:40,0.943,1.478,0.981,1.773,1.220,0.519,0.946,0.869,���k��,0.9,��
2017/08/25,22:50,0.942,1.479,0.982,1.772,1.220,0.518,0.943,0.872,�k��,1.2,��
2017/08/25,23:00,0.943,1.481,0.981,1.772,1.217,0.517,0.944,0.871,���k��,1.1,��
2017/08/25,23:10,0.941,1.479,0.982,1.775,1.217,0.520,0.945,0.870,��,1.5,��
2017/08/25,23:20,0.941,1.480,0.982,1.774,1.216,0.519,0.944,0.871,���k��,0.6,��
2017/08/25,23:30,0.941,1.479,0.982,1.774,1.220,0.519,0.943,0.870,-,CALM,��
2017/08/25,23:40,0.943,1.483,0.982,1.773,1.220,0.519,0.943,0.871,�k�k��,1.1,��
2017/08/25,23:50,0.942,1.481,0.982,1.772,1.219,0.519,0.944,0.870,�k�k��,0.9,��
